Météo par heure à Działoszyce

Ce jour, 20 Janvier, Mercredi

Heure Température Précipitation Vent Pression Humidité
00:00 -4°C° 0.2 mm 4 m/s 737 mmHg 96%
01:00 -4°C° 0.2 mm 3 m/s 737 mmHg 96%
02:00 -2°C° 0.2 mm 3 m/s 737 mmHg 96%
03:00 -3°C° 0.2 mm 4 m/s 737 mmHg 96%
04:00 -2°C° 0.2 mm 4 m/s 736 mmHg 97%
05:00 -2°C° 0.3 mm 4 m/s 737 mmHg 97%
06:00 -1°C° 0.3 mm 4 m/s 737 mmHg 97%
07:00 0°C° 0.3 mm 4 m/s 737 mmHg 98%
08:00 0°C° 0.1 mm 4 m/s 737 mmHg 98%
09:00 0°C° 0.1 mm 4 m/s 737 mmHg 98%
10:00 +1°C° 0.1 mm 3 m/s 738 mmHg 99%
11:00 +1°C° 0 mm 3 m/s 738 mmHg 99%
12:00 +1°C° 0 mm 3 m/s 737 mmHg 99%
13:00 +1°C° 0 mm 3 m/s 737 mmHg 99%
14:00 +1°C° 0 mm 3 m/s 737 mmHg 97%
15:00 +1°C° 0 mm 3 m/s 737 mmHg 95%
16:00 +1°C° 0 mm 3 m/s 737 mmHg 93%
17:00 +1°C° 0 mm 3 m/s 737 mmHg 91%
18:00 0°C° 0 mm 3 m/s 737 mmHg 89%
19:00 0°C° 0 mm 3 m/s 737 mmHg 88%
20:00 0°C° 0 mm 3 m/s 737 mmHg 86%
21:00 0°C° 0 mm 3 m/s 737 mmHg 85%
22:00 -1°C° 0 mm 3 m/s 737 mmHg 83%
23:00 -1°C° 0 mm 3 m/s 737 mmHg 84%

Demain, 21 Janvier, Jeudi

Heure Température Précipitation Vent Pression Humidité
00:00 -1°C° 0 mm 2 m/s 737 mmHg 85%
01:00 -1°C° 0 mm 2 m/s 736 mmHg 85%
02:00 -1°C° 0 mm 2 m/s 736 mmHg 85%
03:00 -2°C° 0 mm 2 m/s 736 mmHg 85%
04:00 0°C° 0 mm 1 m/s 736 mmHg 85%
05:00 0°C° 0 mm 1 m/s 736 mmHg 85%
06:00 0°C° 0 mm 1 m/s 736 mmHg 85%
07:00 0°C° 0 mm 1 m/s 736 mmHg 85%
08:00 +1°C° 0 mm 1 m/s 735 mmHg 87%
09:00 +2°C° 0 mm 1 m/s 735 mmHg 90%
10:00 +2°C° 0 mm 1 m/s 735 mmHg 92%
11:00 +3°C° 0 mm 1 m/s 735 mmHg 94%
12:00 +3°C° 0 mm 1 m/s 735 mmHg 96%
13:00 +4°C° 0 mm 1 m/s 734 mmHg 98%
14:00 +3°C° 0 mm 1 m/s 734 mmHg 94%
15:00 +3°C° 0 mm 1 m/s 734 mmHg 89%
16:00 +3°C° 0 mm 1 m/s 734 mmHg 85%
17:00 +3°C° 0 mm 1 m/s 734 mmHg 85%
18:00 +3°C° 0 mm 1 m/s 734 mmHg 85%
19:00 +3°C° 0 mm 1 m/s 734 mmHg 86%
20:00 +2°C° 0 mm 1 m/s 734 mmHg 86%
21:00 +1°C° 0 mm 2 m/s 734 mmHg 86%
22:00 +1°C° 0 mm 2 m/s 734 mmHg 87%
23:00 +1°C° 0 mm 2 m/s 733 mmHg 87%

Après-demain, 22 Janvier, Vendredi

Heure Température Précipitation Vent Pression Humidité
00:00 +1°C° 0 mm 2 m/s 733 mmHg 87%
01:00 +1°C° 0 mm 2 m/s 733 mmHg 87%
02:00 +1°C° 0 mm 2 m/s 732 mmHg 86%
03:00 +1°C° 0 mm 2 m/s 732 mmHg 85%
04:00 +1°C° 0 mm 2 m/s 731 mmHg 84%
05:00 +1°C° 0 mm 3 m/s 731 mmHg 84%
06:00 0°C° 0 mm 4 m/s 730 mmHg 83%
07:00 +1°C° 0 mm 4 m/s 730 mmHg 82%
08:00 +1°C° 0 mm 4 m/s 730 mmHg 86%
09:00 +3°C° 0 mm 4 m/s 729 mmHg 89%
10:00 +2°C° 0 mm 5 m/s 729 mmHg 92%
11:00 +3°C° 0 mm 4 m/s 729 mmHg 93%
12:00 +3°C° 0 mm 4 m/s 729 mmHg 94%
13:00 +4°C° 0 mm 4 m/s 729 mmHg 96%
14:00 +3°C° 0 mm 3 m/s 729 mmHg 94%
15:00 +4°C° 0 mm 2 m/s 729 mmHg 92%
16:00 +4°C° 0 mm 2 m/s 729 mmHg 90%
17:00 +4°C° 0.1 mm 2 m/s 729 mmHg 91%
18:00 +4°C° 0.1 mm 2 m/s 729 mmHg 92%
19:00 +2°C° 0.1 mm 3 m/s 729 mmHg 93%
20:00 +2°C° 0.8 mm 3 m/s 728 mmHg 93%
21:00 +2°C° 0.8 mm 3 m/s 728 mmHg 93%
22:00 +3°C° 0.8 mm 2 m/s 728 mmHg 93%
23:00 +3°C° 0.2 mm 2 m/s 727 mmHg 92%

23 Janvier, Samedi

Heure Température Précipitation Vent Pression Humidité
00:00 +3°C° 0.2 mm 2 m/s 727 mmHg 91%
01:00 +3°C° 0.2 mm 2 m/s 727 mmHg 90%
02:00 +3°C° 0 mm 2 m/s 727 mmHg 90%
03:00 +3°C° 0 mm 2 m/s 727 mmHg 89%
04:00 +3°C° 0 mm 2 m/s 727 mmHg 88%
05:00 +3°C° 0 mm 2 m/s 727 mmHg 89%
06:00 +3°C° 0 mm 2 m/s 727 mmHg 89%
07:00 +3°C° 0 mm 2 m/s 727 mmHg 89%
08:00 +3°C° 0 mm 2 m/s 726 mmHg 90%
09:00 +3°C° 0 mm 3 m/s 726 mmHg 90%
10:00 +4°C° 0 mm 4 m/s 726 mmHg 91%
11:00 +4°C° 0 mm 4 m/s 725 mmHg 90%
12:00 +5°C° 0 mm 4 m/s 725 mmHg 89%
13:00 +5°C° 0 mm 4 m/s 725 mmHg 87%
14:00 +5°C° 0 mm 4 m/s 724 mmHg 87%
15:00 +4°C° 0 mm 4 m/s 724 mmHg 87%
16:00 +4°C° 0 mm 4 m/s 724 mmHg 87%
17:00 +4°C° 0.1 mm 3 m/s 724 mmHg 89%
18:00 +3°C° 0.1 mm 3 m/s 724 mmHg 90%
19:00 +3°C° 0.1 mm 3 m/s 724 mmHg 92%
20:00 +2°C° 0.3 mm 3 m/s 724 mmHg 93%
21:00 +3°C° 0.3 mm 2 m/s 723 mmHg 95%
22:00 +2°C° 0.3 mm 2 m/s 723 mmHg 96%
23:00 +1°C° 0.7 mm 3 m/s 724 mmHg 96%

24 Janvier, Dimanche

Heure Température Précipitation Vent Pression Humidité
00:00 0°C° 0.7 mm 4 m/s 724 mmHg 97%
01:00 -1°C° 0.7 mm 5 m/s 724 mmHg 97%
02:00 -1°C° 0.1 mm 5 m/s 725 mmHg 96%
03:00 -1°C° 0.1 mm 5 m/s 725 mmHg 95%
04:00 -1°C° 0.1 mm 5 m/s 725 mmHg 94%
05:00 -1°C° 0 mm 4 m/s 726 mmHg 93%
06:00 -1°C° 0 mm 4 m/s 726 mmHg 93%
07:00 -1°C° 0 mm 3 m/s 727 mmHg 92%
08:00 0°C° 0 mm 3 m/s 727 mmHg 90%
09:00 0°C° 0 mm 3 m/s 728 mmHg 89%
10:00 -1°C° 0 mm 4 m/s 728 mmHg 87%
11:00 +1°C° 0 mm 3 m/s 728 mmHg 86%
12:00 +1°C° 0 mm 3 m/s 729 mmHg 85%
13:00 +1°C° 0 mm 3 m/s 729 mmHg 84%
14:00 +1°C° 0 mm 3 m/s 729 mmHg 87%
15:00 +1°C° 0 mm 2 m/s 729 mmHg 89%
16:00 +1°C° 0 mm 2 m/s 730 mmHg 91%
17:00 +1°C° 0.1 mm 2 m/s 730 mmHg 93%
18:00 +1°C° 0.1 mm 2 m/s 730 mmHg 95%
19:00 -1°C° 0.1 mm 2 m/s 731 mmHg 97%
20:00 -1°C° 0 mm 2 m/s 731 mmHg 96%
21:00 -1°C° 0 mm 2 m/s 731 mmHg 95%
22:00 -1°C° 0 mm 2 m/s 731 mmHg 95%
23:00 0°C° 0 mm 1 m/s 732 mmHg 93%

25 Janvier, Lundi

Heure Température Précipitation Vent Pression Humidité
00:00 0°C° 0 mm 1 m/s 732 mmHg 92%
01:00 0°C° 0 mm 1 m/s 732 mmHg 91%
02:00 0°C° 0 mm 1 m/s 732 mmHg 91%
03:00 -1°C° 0 mm 1 m/s 732 mmHg 91%
04:00 -2°C° 0 mm 0 m/s 732 mmHg 91%
05:00 -2°C° 0 mm 0 m/s 732 mmHg 91%
06:00 -2°C° 0 mm 0 m/s 733 mmHg 91%
07:00 -2°C° 0 mm 0 m/s 733 mmHg 91%
08:00 -1°C° 0 mm 0 m/s 733 mmHg 88%
09:00 0°C° 0 mm 1 m/s 733 mmHg 85%
10:00 +1°C° 0 mm 1 m/s 733 mmHg 82%
11:00 +1°C° 0 mm 1 m/s 733 mmHg 80%
12:00 +1°C° 0 mm 2 m/s 733 mmHg 78%
13:00 +1°C° 0 mm 2 m/s 732 mmHg 75%
14:00 +1°C° 0 mm 2 m/s 732 mmHg 78%
15:00 -1°C° 0 mm 3 m/s 732 mmHg 80%
16:00 -2°C° 0 mm 4 m/s 732 mmHg 83%
17:00 -2°C° 0 mm 4 m/s 732 mmHg 84%
18:00 -3°C° 0 mm 4 m/s 732 mmHg 85%
19:00 -3°C° 0 mm 4 m/s 732 mmHg 86%
20:00 -3°C° 0 mm 4 m/s 732 mmHg 86%
21:00 -4°C° 0 mm 5 m/s 732 mmHg 86%
22:00 -4°C° 0 mm 5 m/s 732 mmHg 85%
23:00 -4°C° 0.2 mm 5 m/s 732 mmHg 88%
Voir plus

Nous avons besoin de votre consentement

Meteoprog et ses fournisseurs de services peuvent stocker et accéder à des données personnelles telles que des cookies, des identifiants d'appareils ou d'autres technologies similaires sur votre appareil et traiter ces données pour personnaliser le contenu et les publicités, ainsi que pour fournir des fonctionnalités de médias sociaux et analyser le trafic.

  • Stocker et/ou accéder à des informations sur votre appareil

    Des cookies, des identifiants d'appareils ou d'autres informations peuvent être stockés ou accessibles sur votre appareil aux fins indiquées ci-dessus.

  • Annonces et contenus personnalisés, mesure des annonces et des contenus, connaissance de l'audience et développement de produits

    Les annonces et le contenu peuvent être personnalisés en fonction d'un profil. D'autres données peuvent être ajoutées pour mieux personnaliser les annonces et le contenu. Les performances des publicités et du contenu peuvent être mesurées. Il est possible d'obtenir des informations sur le public qui a vu les publicités et le contenu. Ces données peuvent être utilisées pour développer ou améliorer l'expérience de l'utilisateur, les systèmes et les logiciels.

En cliquant sur "J'accepte", vous autorisez l'utilisation de cookies, des identifiants d'appareils, des balises web ou d'autres technologies similaires. Vos paramètres peuvent être modifiés dans le navigateur de votre appareil.

Dans certains cas, des intérêts légitimes peuvent être invoqués plutôt qu'un consentement. Vous pouvez en savoir plus à ce sujet dans notre Politique de confidentialité et de cookies.